sat.trackr.live / text

‹ back to catalog

GSAT-29

NORAD 43698 · 2018-089A

PAYLOAD ACTIVE UNKNOWN

§ Identity

Operator
Country
IND
Launch date
2018-11-14
Launch site
SRILR
Launch vehicle
Mass (kg)
RCS (m²)

Purposes: comms

External: N2YO · Heavens-Above · Gunter

§ Orbital elements

Epoch: 2026-09-13T00:25:52.002336Z

Period
1,436.05 min
Inclination
0.0528°
Eccentricity
0.0001592
Mean motion
1.00275267 rev/d
Perigee alt
35,778.9 km
Apogee alt
35,792.3 km
Semi-major
42,163.8 km
B*
0.0000e+0
RAAN
270.0677°
Arg perigee
253.9569°
Mean anomaly
249.5095°
Rev number
2,866

§ Raw data

GSAT-291 43698U 18089A   26256.01796299  .00000072  00000+0  00000+0 0  99972 43698   0.0528 270.0677 0001592 253.9569 249.5095  1.00275267 28668

JSON: /api/v1/satellites/43698 · /tle

For live sub-satellite position, see the globe view (requires WebGL).

§ Visibility from observer

Set your observer location to see the next 7 days of passes ≥ 10°. The values pass through the URL so the page stays shareable.

No JS? Fill the form by hand. The geolocation button needs JavaScript.